Regional Weather Roundup
Issued by NWS

Home | Current Version | Previous Version | Graphics & Text | Print | Product List | Glossary Off
Versions: 1 2 3 4 5 6 7 8 9 10 11 12 13 14 15 16 17 18 19 20 21 22 23 24 25 26 27 28 29 30 31 32 33 34 35 36 37 38 39 40 41 42 43 44 45 46 47 48 49 50

000
ASUS43 KMPX 210601
RWRMN
WEATHER ROUNDUP FOR MINNESOTA
NATIONAL WEATHER SERVICE TWIN CITIES/CHANHASSEN MN
1200 AM CST WED FEB 21 2018


NOTE: "FAIR" INDICATES FEW OR NO CLOUDS BELOW 12,000 FEET WITH NO
SIGNIFICANT WEATHER AND/OR OBSTRUCTIONS TO VISIBILITY. N/A MEANS
CURRENT SKY AND/OR WEATHER CONDITIONS ARE NOT AVAILABLE.

MNZ060>063-068>070-210700-
   Twin Cities Metro

CITY           SKY/WX    TMP DP  RH WIND       PRES   REMARKS
TWIN CITIES    FAIR       8   2  76 NW10      30.37R WCI  -6
6HR MIN TEMP:   8; 6HR MAX TEMP:  18;

ST PAUL        FAIR       9   1  70 NW10G21   30.38R WCI  -5
CRYSTAL        FAIR       7  -1  70 W9        30.36R WCI  -7
BLAINE         FAIR       9   1  72 W8        30.35R WCI  -4
LAKEVILLE      FAIR       7   1  78 W7        30.35R WCI  -5
EDEN PRAIRIE   FAIR       8   1  73 W9        30.36R WCI  -5
6HR MIN TEMP:   8; 6HR MAX TEMP:  16;

SOUTH ST PAUL  FAIR      10   2  72 W6        30.37R WCI   0
LAKE ELMO      FAIR       9   3  78 W5        30.36R WCI   0
$$
MNZ001>005-007-008-013>017-022>024-027-028-210700-
   Northwest Minnesota

CITY           SKY/WX    TMP DP  RH WIND       PRES   REMARKS
BEMIDJI        FAIR      -3  -6  86 SW6       30.21R WCI -15
HALLOCK        FAIR      -4  -9  77 S8        30.19R WCI -19
ROSEAU         FAIR       1  -2  85 SW10      30.17R WCI -14
WARROAD        FAIR       0  -4  85 SW8       30.17R WCI -15
THIEF RVR FALL FAIR      -3  -7  82 SW10      30.23R WCI -20
CROOKSTON      FAIR      -4  -9  77 SW8       30.26R WCI -19
FOSSTON        FAIR      -6  -9  84 SW9       30.23R WCI -22
DETROIT LAKES  FAIR       3  -2  78 W8        30.27R WCI -10
MOORHEAD       FAIR       0  -8  71 W9        30.31S WCI -16
PARK RAPIDS    FAIR      -6 -11  79 S7        30.24R WCI -20
$$
MNZ006-009>011-018-025>026-210700-
   North Central Minnesota

CITY           SKY/WX    TMP DP  RH WIND       PRES   REMARKS
BAUDETTE       FAIR      -2  -6  83 SW3       30.16R
FLAG ISLAND    FAIR      -2  -6  84 SW9       30.13R WCI -18
INTL FALLS     FAIR      -1  -3  91 SW5       30.18R WCI -11
6HR MIN TEMP:  -1; 6HR MAX TEMP:   9;

WASKISH        FAIR       1  -2  85 SW10      30.19R WCI -14
BIG FORK       FLURRIES  -6 -11  77 SW3       30.21R
LONGVILLE      FAIR     -11 -15  84 CALM      30.25R
GRAND RAPIDS   FAIR       1  -3  83 CALM      30.25R
CRANE LAKE     CLOUDY     7   1  78 W6        30.21R WCI  -3
ORR            FAIR       1  -2  85 SW5       30.17R WCI  -8
COOK             N/A      5   1  85 W7        30.20R WCI  -7
WALKER         FAIR       0  -4  81 SW7       30.24R WCI -13
$$
MNZ012-019>021-037-210700-
   Northeast Minnesota

CITY           SKY/WX    TMP DP  RH WIND       PRES   REMARKS
DULUTH         FAIR       5  -1  76 NW12      30.20R WCI -11
6HR MIN TEMP:   5; 6HR MAX TEMP:  14; 6HR PCP: TRACE;

ELY            FLURRIES   7   1  78 W13G18    30.16R WCI  -9
HIBBING        FAIR       1  -3  83 W6        30.21R WCI -10
EVELETH        MOCLDY   N/A N/A N/A W9        30.21R
DULUTH HARBOR  FAIR      10   3  72 W12G17    30.29R WCI  -4
TWO HARBORS    FLURRIES  10   5  79 W6        30.18R WCI   1
GRAND MARAIS     N/A     12   3  67 W6        30.19R WCI   3
G MARAIS ARPRT FLURRIES   3  -2  78 W5        30.07R WCI  -6
$$
MNZ029>031-032-039>041-046>048-054>057-064-210700-
   West Central Minnesota

CITY           SKY/WX    TMP DP  RH WIND       PRES   REMARKS
FERGUS FALLS   FAIR      -6  -9  84 W6        30.34R WCI -18
WHEATON        CLOUDY     1  -6  71 SW12      30.38R WCI -15
MORRIS         CLOUDY     1  -6  71 W10       30.35R WCI -14
ALEXANDRIA     FAIR       3  -3  76 W13       30.30R WCI -14
ELBOW LAKE     FAIR      -3  -7  82 SW10      30.33R WCI -19
WADENA         FAIR       0  -6  78 SW7       30.27R WCI -13
GLENWOOD       FAIR      -2  -6  84 W7        30.32R WCI -16
APPLETON       PTCLDY    -2  -8  78 W7        30.39R WCI -16
BENSON         PTCLDY    -2  -8  78 W7        30.37R WCI -16
ORTONVILLE     CLEAR      3  -4  72 W10       30.37R WCI -12
MADISON        CLEAR      3  -2  78 W10       30.39R WCI -12
WILLMAR        FAIR      -2  -6  84 W5        30.38R WCI -12
$$
MNZ033>034-036-042>043-049>051-058-059-210700-
   Central Minnesota

CITY           SKY/WX    TMP DP  RH WIND       PRES   REMARKS
ST CLOUD       FAIR       1  -3  83 SW6       30.34R WCI -10
6HR MIN TEMP:   0; 6HR MAX TEMP:  14;

SAUK CENTRE    FAIR      -1  -5  82 W7        30.32R WCI -14
PAYNESVILLE    FAIR      -4  -7  87 W3        30.35R
AITKIN         FAIR       1  -4  78 W5        30.26R WCI  -8
PINE RIVER     FAIR      -8 -11  84 CALM      30.29R
BRAINERD       FAIR       1  -5  75 W7        30.28R WCI -12
STAPLES        FAIR       0  -4  85 SW5       30.28R WCI -10
LONG PRAIRIE   FAIR       0  -6  78 S3        30.31R
LITTLE FALLS   FAIR       0  -8  71 CALM      30.32R
LITCHFIELD     FAIR       1   0  92 SW3       30.37R
BUFFALO        FAIR       3  -1  81 CALM      30.38R
MAPLE LAKE     FAIR       5   1  84 CALM      30.37R
HUTCHINSON     FAIR       0  -4  84 W5        30.38R WCI -10
$$
MNZ037-044-045-052-053-210700-
   East Central Minnesota

CITY           SKY/WX    TMP DP  RH WIND       PRES   REMARKS
PRINCETON      FAIR       3  -2  78 CALM      30.34R
MORA           FAIR       5   0  78 CALM      30.33R
CAMBRIDGE        N/A      7  -2  66 W5        30.34R WCI  -2
RUSH CITY      FAIR       4  -2  77 W3        30.33R
MOOSE LAKE     FAIR       5   0  78 W6        30.27R WCI  -6
HINCKLEY       FAIR       5   0  78 W5        30.31R WCI  -4
CLOQUET        FAIR       3  -2  78 W9        30.24R WCI -11
MCGREGOR       FAIR       3   0  85 CALM      30.27R
$$
MNZ071>073-080-081-089-090-097-098-210700-
   Southwest Minnesota

CITY           SKY/WX    TMP DP  RH WIND       PRES   REMARKS
MONTEVIDEO     CLOUDY     0  -6  78 NW5       30.39R WCI -10
GRANITE FALLS  CLOUDY     2  -3  78 W12       30.40R WCI -14
CANBY          PTCLDY     6  -1  73 W10       30.40R WCI  -9
MARSHALL       CLOUDY    -1  -6  79 W8        30.39R WCI -15
REDWOOD FALLS  PTCLDY     2  -3  80 W8        30.40R WCI -12
OLIVIA         PTCLDY     0  -4  85 W8        30.38R WCI -15
PIPESTONE      CLOUDY    -2  -6  84 NW7       30.36R WCI -16
WORTHINGTON    CLOUDY     2  -2  83 W12       30.38R WCI -15
JACKSON        CLOUDY     5   0  78 W8        30.38R WCI  -8
TRACY          CLOUDY     5   0  78 W7        30.38R WCI  -7
SLAYTON        CLOUDY     3  -2  79 W13       30.36R WCI -14
$$
MNZ065>067-074>077-082>085-091>093-210700-
   South Central Minnesota

CITY           SKY/WX    TMP DP  RH WIND       PRES   REMARKS
MANKATO        FAIR       7   2  80 W8        30.39R WCI  -6
NEW ULM        CLEAR      1  -4  78 W10       30.40R WCI -14
ST JAMES       CLOUDY     3   0  85 W6        30.41R WCI  -8
FAIRMONT       CLOUDY     6   2  83 NW13      30.40R WCI -10
GLENCOE        FAIR       4   0  83 W3        30.38R
FARIBAULT      FAIR       9   1  72 W6        30.37R WCI  -1
OWATONNA       FAIR       7   3  85 CALM      30.36R
WASECA         FAIR      10   5  79 NW7       30.39R WCI   0
ALBERT LEA     FAIR       9   3  78 NW6       30.36R WCI  -1
$$
MNZ078>079-086>088-094>096-210700-
   Southeast Minnesota

CITY           SKY/WX    TMP DP  RH WIND       PRES   REMARKS
ROCHESTER      MIX PCPN   8   4  83 NW16      30.32R WCI -10
6HR MIN TEMP:   8; 6HR MAX TEMP:  15; 6HR PCP: TRACE;

RED WING       FAIR      10   1  67 W6        30.36R WCI   1
STANTON        FAIR       8   2  76 W7        30.36R WCI  -3
DODGE CENTER   FAIR       7   1  78 W6        30.34R WCI  -3
WINONA         FAIR      14   9  79 NW7       30.34R WCI   4
AUSTIN         FAIR       9   3  78 NW9       30.35R WCI  -5
PRESTON        FAIR       9   5  82 NW10      30.32R WCI  -5
$$
ABBREVIATIONS USED IN REMARKS
   TC - TEMPERATURES IN CELSIUS
  WCI - WIND CHILL INDEX
   HX - HEAT INDEX
  VSB - VISIBILITY
$$




USA.gov is the U.S. government's official web portal to all federal, state and local government web resources and services.